GFSGBSN_con_3kmhel_045.txt.gz
Helicity
102 115 119 77 50 49 58 70 71 74 73 67 65 82 93 91 81 65 60 48 48 41 33 43 53 76 57 36 24 113 72 77 44 22 11 4 -9 -3 -7 3 9 23 16 14 26 -1 -13
89 95 100 113 113 59 47 58 70 71 71 79 72 72 67 79 89 75 70 62 54 57 49 52 55 53 17 38 96 64 67 56 30 27 15 -14 -27 -43 -56 -23 -21 27 21 -1 4 -26 23
82 89 92 109 107 118 107 66 64 62 63 61 74 73 70 63 74 78 62 61 67 58 53 53 57 28 48 31 70 56 42 30 22 24 11 -8 -24 -31 -27 12 1 -6 15 28 22 -0 25
67 68 78 86 95 105 103 128 88 61 61 61 67 82 68 67 62 62 54 52 62 67 51 43 41 27 56 76 49 41 39 34 17 16 3 -18 -21 -33 -34 -31 -5 19 34 36 33 21 11
66 64 67 70 84 83 102 108 110 102 68 63 70 78 76 68 64 55 46 46 45 45 35 36 21 66 57 114 47 18 29 29 40 30 7 -21 -28 -22 -11 9 30 44 -16 -9 57 18 67
38 46 65 67 73 74 70 89 112 123 95 70 70 70 79 79 77 62 56 23 32 56 11 33 69 73 78 64 44 41 27 41 40 28 7 1 4 1 37 -9 -6 -4 46 35 65 25 19
33 36 45 50 74 65 61 73 83 98 119 92 85 80 78 85 99 98 78 29 4 13 35 56 138 98 148 91 69 57 52 63 11 30 27 58 19 24 10 25 -16 22 -33 1 29 40 14
35 35 37 44 50 51 57 59 72 90 102 126 84 86 90 103 109 113 65 53 88 88 62 42 14 8 27 114 97 46 76 70 47 32 11 12 24 -9 -10 -43 -26 -23 -24 4 30 42 13
47 56 54 47 53 58 50 54 65 73 92 89 124 85 91 113 141 98 44 42 64 36 19 15 31 22 46 32 72 56 88 43 49 12 3 -3 10 70 -6 -0 -20 -14 -13 44 32 -0 -6
61 72 70 66 66 84 82 80 64 59 67 72 81 86 92 108 143 74 52 53 51 2 12 31 24 87 72 98 121 44 93 39 27 3 -6 -0 -7 21 11 -10 -6 7 14 46 41 32 19
69 68 70 70 72 72 83 91 97 77 72 71 58 91 37 74 391 167 221 91 42 18 82 96 115 146 116 201 181 138 60 3 6 18 -6 23 -10 24 -8 -8 8 -49 49 10 20 29 14
44 48 58 66 73 76 77 91 116 104 90 80 80 55 71 75 189 230 205 146 71 118 107 83 75 43 61 49 57 54 63 1 1 -6 9 -22 28 13 7 -1 -19 -26 19 -5 3 30 -17
45 53 58 62 68 76 83 84 95 116 103 93 83 68 105 56 126 153 200 179 201 207 122 103 84 31 21 69 73 88 92 75 31 18 39 9 27 3 -38 5 3 3 -15 -0 10 -1 -7
54 68 68 65 71 81 88 97 104 106 112 99 83 89 99 91 96 292 177 248 305 172 127 138 87 75 57 50 51 130 127 60 26 42 55 41 36 22 53 -18 24 16 -17 -20 29 8 23
36 71 74 87 94 100 96 100 108 105 109 102 89 126 108 94 113 223 409 335 238 157 96 83 96 102 93 65 61 77 41 49 56 22 7 49 -4 31 30 18 -30 35 5 -2 25 65 44
-29 84 105 117 115 112 107 101 117 120 87 71 151 153 119 96 72 201 342 361 183 119 85 72 99 110 90 112 98 85 75 51 30 13 3 23 38 65 64 3 -24 -82 29 5 -13 41 30
88 81 124 137 131 137 125 119 117 118 84 79 166 265 159 145 115 230 386 276 98 112 38 67 144 75 117 75 63 91 105 87 19 35 22 5 30 87 109 30 25 -0 16 -3 25 5 45
88 120 128 134 119 120 112 116 108 119 107 112 259 295 145 225 287 293 414 169 111 115 71 56 46 57 51 71 71 65 59 57 66 25 51 7 45 63 45 18 -14 4 26 26 6 -2 53
100 108 142 175 155 85 99 110 121 141 163 225 358 364 147 186 372 312 194 98 160 216 154 45 88 102 81 78 103 61 47 75 77 -3 64 25 88 73 30 85 16 17 -21 -13 10 2 -12
121 156 124 120 112 108 98 103 127 158 204 267 436 440 348 199 159 136 164 56 196 225 144 49 78 57 93 117 60 113 46 63 169 57 54 60 88 73 41 57 53 37 6 -1 -0 47 24
131 113 92 90 88 96 95 74 81 167 263 351 442 516 597 502 302 138 112 144 193 188 218 132 74 52 82 87 138 86 94 93 90 49 102 48 65 49 19 10 15 11 45 24 5 18 -9
92 94 100 100 92 73 68 98 69 193 317 417 552 482 400 272 223 143 110 114 206 123 120 204 116 48 50 79 66 49 100 151 71 50 76 53 89 44 44 23 32 37 15 -1 -4 33 -4
75 82 86 77 78 67 76 70 64 84 412 433 568 341 239 229 109 173 124 68 68 104 68 60 69 72 66 87 76 101 194 246 212 227 45 64 98 75 87 56 38 35 -4 -4 4 -31 19
71 69 68 69 71 55 76 77 78 75 224 429 534 391 344 192 221 121 92 49 70 175 104 49 80 68 34 66 84 124 160 194 169 189 236 113 118 93 101 165 42 63 21 8 -11 -36 -20
43 25 28 58 91 64 43 80 88 88 98 533 412 412 344 229 117 100 60 72 29 78 91 72 118 64 58 64 94 86 134 114 128 128 203 138 122 126 125 81 71 31 39 56 27 6 1
67 76 78 56 60 81 71 87 82 58 87 493 382 356 373 186 137 50 73 78 87 151 142 104 92 117 98 106 130 122 160 78 85 -19 107 138 125 130 160 84 55 19 39 41 14 -12 1
34 85 66 50 62 101 99 90 90 96 83 376 410 289 305 193 129 116 107 87 69 93 173 138 112 145 141 156 113 136 111 97 92 61 165 229 159 135 128 150 119 52 20 60 67 -59 42
22 10 -2 1 55 99 101 104 110 119 104 496 344 227 259 163 155 67 86 83 21 83 184 227 101 150 179 146 156 143 149 120 83 60 52 102 172 168 121 108 78 131 135 97 83 13 54
6 43 51 23 66 114 141 108 120 134 172 297 271 207 273 188 163 217 175 176 116 55 109 134 119 162 204 189 125 159 174 148 96 83 73 62 133 157 110 118 113 114 86 38 -2 21 62

GFSGBSN_con_3kmhel_048.txt.gz
Helicity
49 63 70 73 90 109 70 58 65 71 67 63 63 64 65 72 74 70 64 56 50 44 27 34 43 56 34 33 32 103 79 83 64 32 10 2 -3 6 7 -7 -16 21 13 -31 10 20 -6
44 47 47 59 75 72 83 95 81 77 65 62 54 52 64 57 59 60 59 56 50 50 45 36 54 71 9 34 56 105 53 79 39 29 12 -10 -21 -39 -77 -44 -38 -26 -20 -1 9 16 22
47 48 55 47 59 79 86 55 72 80 75 66 65 61 62 61 58 57 52 49 40 42 41 49 54 46 24 53 54 94 56 45 19 24 7 4 -24 -44 -32 -33 25 -15 3 23 22 5 40
76 67 62 68 63 59 62 73 65 48 74 69 65 70 71 73 61 54 48 51 35 25 35 37 60 48 23 19 27 25 45 31 11 8 -5 -56 -5 -38 -44 -34 -3 6 35 53 56 39 109
63 59 64 71 62 68 67 68 70 64 60 79 73 59 66 77 74 59 51 44 22 12 22 30 48 44 29 76 58 14 32 32 30 26 11 -14 -3 -15 -24 6 41 49 53 23 40 61 57
58 52 49 48 48 60 55 63 60 69 72 71 79 77 70 67 75 91 67 79 -2 49 11 6 53 78 56 25 28 30 29 11 18 44 27 9 7 -3 2 4 9 21 18 -14 156 43 -4
48 45 46 48 49 42 38 48 46 61 65 87 75 84 73 71 78 110 97 66 10 -1 0 57 105 72 182 19 79 37 36 20 3 57 26 17 14 18 34 56 32 -18 -11 32 83 70 35
42 39 31 30 37 40 34 41 41 47 56 58 75 92 71 68 68 120 108 72 111 108 46 25 33 31 -4 100 97 36 54 59 56 49 27 0 53 36 -3 -34 -62 -65 -37 5 30 51 33
42 44 42 32 29 36 38 51 56 47 50 57 67 57 90 58 63 110 65 9 130 52 1 -12 26 42 24 28 23 26 45 49 47 33 8 21 -4 35 15 -6 -14 2 -16 -21 64 13 13
43 48 52 49 52 53 50 52 60 66 59 56 64 65 70 71 65 118 70 34 24 61 -15 5 17 75 47 58 58 -25 0 44 25 24 5 -12 2 0 16 -3 11 -4 -20 -13 25 22 -10
49 55 57 69 75 70 65 59 59 65 68 64 76 71 70 53 238 160 236 302 70 52 64 22 38 143 79 143 163 63 -30 43 25 35 39 -19 -24 -27 18 -1 -18 -17 19 -36 -13 47 40
45 51 63 69 73 72 69 66 58 56 63 81 80 89 86 92 86 58 298 326 148 171 113 88 105 72 72 46 60 78 67 27 20 6 0 -14 -7 -8 22 -13 -38 -17 8 -8 -12 -1 -18
49 49 53 49 50 60 67 73 71 56 52 63 85 90 100 90 65 169 149 240 243 250 117 116 106 62 37 40 25 12 93 65 113 87 70 -10 -45 7 21 -2 12 6 -6 -8 0 -9 32
43 44 41 47 44 56 68 79 79 77 62 44 65 104 90 87 20 219 112 280 371 230 191 92 20 41 78 26 27 42 45 85 35 32 75 20 25 -53 49 -31 12 29 1 -6 -12 -10 -47
36 35 34 34 31 35 44 50 79 89 89 39 40 104 107 101 30 173 273 366 308 251 53 112 92 186 80 51 42 42 45 117 53 -16 78 8 -7 22 41 47 -40 -3 13 -42 74 28 -4
30 22 30 27 29 32 46 64 90 99 102 58 118 126 110 89 44 99 241 267 129 195 181 -42 70 113 113 59 67 59 25 75 25 79 -49 -99 15 2 64 35 39 -64 -6 -26 -37 -34 3
10 16 18 26 27 12 48 75 108 121 88 65 152 185 131 55 96 142 245 213 105 162 168 93 145 54 91 73 31 46 41 34 24 62 16 -80 -39 32 89 133 35 16 -33 10 -57 30 -10
1 6 12 15 6 31 70 101 122 123 77 112 253 250 120 185 266 344 208 166 139 138 138 190 67 87 34 39 31 53 41 39 43 73 60 -80 22 51 35 62 35 -20 24 -7 52 48 12
2 4 14 28 66 76 70 95 105 123 106 272 397 391 131 193 349 321 145 1 34 83 146 188 149 107 93 43 76 60 23 16 155 58 120 -7 26 50 44 83 23 25 6 23 -5 39 7
-29 7 38 48 81 91 113 94 83 119 117 255 478 518 423 208 200 214 237 48 40 58 109 155 191 92 91 53 105 71 154 38 115 110 81 145 71 72 73 66 30 39 53 29 -2 20 37
44 100 116 90 92 80 92 79 108 112 171 276 431 577 636 489 340 189 153 93 32 84 68 197 200 191 126 84 91 63 60 167 104 138 139 141 105 52 25 50 15 32 24 9 -24 21 55
98 101 99 105 112 126 85 81 96 100 150 293 516 548 464 393 218 203 202 85 59 77 104 96 214 152 157 57 46 47 54 109 112 101 130 122 139 87 72 51 50 62 65 23 27 -8 28
82 93 99 100 91 65 115 117 130 98 137 353 494 329 311 354 247 239 200 65 35 73 72 43 146 184 126 131 75 163 30 105 118 165 115 124 196 92 74 52 100 60 62 12 29 29 34
71 74 84 88 91 88 83 64 82 71 65 403 460 376 474 301 323 242 135 77 44 64 48 27 39 109 78 88 151 94 256 66 264 92 244 211 126 142 152 112 11 37 48 67 70 60 68
58 69 78 90 96 101 89 72 69 71 89 136 254 358 479 350 187 149 87 63 70 75 57 49 37 54 75 93 26 12 60 139 200 131 102 236 321 234 193 125 93 98 70 133 144 61 29
64 61 47 90 77 86 92 81 48 40 74 234 160 180 395 298 271 64 100 91 100 94 93 32 60 49 51 91 39 -88 35 145 145 148 102 99 321 268 224 216 127 96 77 46 30 60 53
40 56 60 55 66 56 63 84 73 63 104 221 192 73 341 284 140 180 127 70 73 78 96 67 55 36 134 129 106 102 24 53 157 101 147 37 109 231 194 183 141 133 59 40 35 19 5
42 43 36 35 56 71 60 80 88 98 112 235 224 121 194 306 180 206 177 96 66 59 101 83 84 97 32 297 200 145 84 56 181 74 123 141 53 162 182 182 124 123 38 38 59 44 46
24 14 -22 -17 43 51 80 68 99 114 116 219 199 173 85 182 184 203 223 119 118 125 84 81 51 79 143 120 152 173 273 99 97 128 54 129 87 151 179 222 193 52 76 67 72 46 27

GFSGBSN_con_3kmhel_051.txt.gz
Helicity
48 41 28 26 41 45 46 54 70 68 60 57 61 65 58 67 62 55 56 67 66 55 52 56 50 52 16 45 28 92 78 69 80 84 48 19 11 13 48 -8 -43 -32 14 -17 -7 26 149
70 51 52 49 39 36 36 52 43 45 57 55 49 55 66 65 62 62 52 55 59 67 57 64 65 68 22 13 50 115 58 73 51 72 42 8 18 -7 -9 -100 -99 -34 -66 -64 -28 40 106
62 71 90 109 39 37 62 56 29 35 40 47 43 45 55 60 64 55 49 46 49 51 48 37 62 46 36 90 35 82 55 50 56 43 23 -9 27 24 -24 -73 -89 -3 -35 -55 4 48 176
94 97 77 78 70 87 57 40 76 63 57 40 55 45 39 54 57 57 57 56 43 41 36 23 27 51 38 41 60 37 26 -21 55 15 31 18 27 58 29 -40 -77 -34 -38 30 51 92 145
71 69 66 72 71 64 58 56 48 52 60 69 58 67 49 33 50 52 51 53 50 55 25 12 43 58 28 64 77 6 -10 17 14 -1 -17 -6 75 49 0 -28 -105 -34 83 115 96 138 115
58 46 55 59 55 45 49 49 50 44 43 47 53 62 67 48 38 58 58 85 90 44 19 7 65 77 60 69 45 82 15 -17 20 23 10 24 84 46 -7 -22 -15 20 56 80 147 57 178
60 51 46 43 47 43 44 37 41 49 36 37 43 57 58 68 54 59 51 35 73 61 30 41 64 107 48 134 98 33 19 20 -15 26 62 46 63 39 11 -5 70 81 92 -5 -32 108 64
65 51 37 25 25 18 21 30 34 36 39 33 42 43 54 66 67 75 77 62 57 76 -14 23 48 69 39 69 127 77 68 107 60 9 112 21 49 45 22 54 58 42 -45 -65 49 -1 89
50 50 36 28 25 26 27 28 36 43 41 44 41 39 45 54 65 108 117 70 127 173 -3 -60 72 135 114 51 18 -6 113 50 100 55 52 69 26 20 63 71 2 -23 -19 -36 -26 25 46
66 53 46 39 30 29 34 35 45 50 45 53 52 57 45 46 70 111 145 127 175 129 -5 -14 87 63 82 86 130 -12 13 97 101 50 17 -1 7 26 12 55 6 -28 -4 -22 -57 -3 -23
78 71 62 46 44 43 42 48 55 56 46 49 56 68 56 47 71 60 192 275 304 87 33 7 59 12 60 253 170 70 -4 96 63 52 121 36 12 -6 -25 20 16 -13 14 -12 -75 -67 15
75 74 65 55 45 48 49 62 62 55 47 45 51 58 67 89 7 -5 112 338 162 189 70 89 87 87 95 36 72 150 156 60 57 45 -42 -54 17 -41 3 37 48 -67 59 53 -32 -46 -59
52 51 49 52 47 53 53 57 50 51 41 38 39 50 83 88 45 123 130 257 287 265 122 132 151 106 76 87 30 -15 154 159 150 150 51 -6 -28 -19 -30 26 70 -48 23 -16 -52 -10 -4
32 31 32 37 43 48 57 60 58 51 43 35 35 44 71 59 62 115 176 303 304 219 273 103 105 97 100 75 46 32 40 130 68 92 122 82 14 -44 -21 36 66 13 74 55 0 -22 -56
32 27 28 32 39 44 51 58 54 50 36 30 22 64 114 35 73 100 231 292 307 280 143 103 109 215 112 54 66 78 85 23 76 60 119 136 21 23 16 10 115 66 61 65 65 37 -41
32 27 31 30 36 45 50 50 47 40 25 17 104 111 109 18 101 140 220 158 199 289 301 130 367 176 314 106 64 66 101 75 74 63 78 66 103 -9 -54 37 124 78 58 13 88 -3 -20
24 23 24 25 25 34 40 46 46 54 33 24 136 150 120 28 146 201 211 198 132 145 246 162 172 317 291 99 81 60 74 54 62 113 107 31 84 -4 -15 39 164 171 33 41 30 61 21
27 23 14 10 13 12 25 35 44 52 42 62 192 203 98 132 208 233 137 294 47 124 61 80 133 142 315 222 94 114 71 76 25 36 107 101 139 -39 16 51 127 171 116 95 76 29 103
-31 -18 -6 0 13 26 28 42 46 55 52 152 242 315 93 262 262 193 111 45 83 131 64 126 53 -10 52 186 85 97 74 39 63 51 110 175 192 98 70 63 45 67 85 104 111 137 74
-15 -9 -9 -10 -7 3 33 48 56 70 68 152 327 375 405 243 254 179 145 89 74 117 31 38 28 111 116 154 88 103 159 66 116 67 160 203 194 109 69 142 80 110 76 53 100 151 101
-8 -17 -19 -19 -1 12 32 72 95 86 42 180 368 461 568 307 285 185 127 116 11 96 125 80 52 45 133 171 65 118 90 -21 130 198 195 175 167 93 116 3 86 54 47 39 88 121 133
-25 -18 1 27 48 79 96 49 21 25 -7 158 408 544 490 419 279 228 176 70 33 99 108 146 54 -4 63 219 269 161 75 -32 32 172 102 178 211 143 106 96 52 54 57 -29 76 105 110
55 63 72 74 75 67 70 62 48 33 16 153 254 386 335 283 297 264 206 131 72 111 34 109 100 71 1 55 158 52 45 7 28 77 294 171 213 214 139 108 119 57 -9 14 -30 50 79
62 59 61 67 72 70 68 68 40 54 82 179 327 417 481 422 329 275 197 142 114 129 73 146 101 108 -24 46 22 63 76 35 60 45 67 353 185 254 198 190 170 114 0 123 56 40 43
42 41 44 49 59 69 67 44 60 96 65 118 275 371 468 411 277 210 231 179 101 122 107 75 79 18 44 60 106 91 16 47 -9 50 24 90 175 249 270 234 204 116 121 114 56 46 47
37 43 50 54 51 54 62 59 59 27 47 162 263 160 394 376 353 207 214 182 141 119 112 60 46 2 63 39 108 102 -2 -32 -16 -46 71 34 153 297 311 254 168 96 125 133 103 68 86
25 18 33 74 89 84 92 86 68 62 76 175 269 203 325 423 419 288 228 166 135 131 144 91 81 72 67 97 101 140 105 -66 22 53 161 122 141 265 354 308 242 123 82 99 146 114 66
33 39 44 50 57 59 88 117 122 77 44 107 206 164 193 121 313 356 370 261 152 92 134 136 89 94 117 86 123 144 127 41 -59 -99 38 77 161 103 188 211 158 161 169 144 132 58 25
48 49 51 46 81 74 67 108 127 90 67 116 223 113 174 95 162 268 259 112 87 174 129 100 92 106 139 131 142 175 218 75 -11 -173 4 51 79 131 72 60 159 134 32 98 91 27 45

GFSGBSN_con_3kmhel_054.txt.gz
Helicity
48 40 54 51 118 52 27 33 18 34 33 34 41 38 46 52 51 49 48 49 59 75 86 83 89 84 38 57 5 39 32 73 82 76 47 59 67 69 47 53 -23 4 -49 19 21 48 84
104 96 88 68 23 59 69 48 48 -20 10 20 20 31 43 40 43 34 46 55 53 53 77 84 69 79 21 15 35 54 125 105 64 77 44 58 30 51 65 68 50 -79 -78 -1 18 26 29
83 104 108 93 74 90 79 45 53 9 7 -10 16 18 31 31 42 34 39 50 55 55 59 73 51 33 31 41 44 109 106 63 60 85 28 17 -23 88 97 3 43 -21 -58 -29 -60 3 58
72 63 57 82 87 97 82 82 101 72 50 41 3 5 19 42 29 35 50 52 60 79 81 67 25 33 16 42 65 22 -2 -44 -5 18 37 -17 32 58 89 21 11 -41 -80 -54 -34 39 93
62 64 67 59 57 62 76 81 68 61 65 65 54 63 51 1 45 45 48 54 101 127 33 35 34 47 14 28 70 67 56 42 30 38 5 63 63 80 61 66 16 -41 -21 16 36 67 144
74 67 68 68 65 61 45 21 58 49 56 50 61 48 69 67 53 55 69 101 155 61 30 38 73 87 51 74 31 113 104 86 65 61 43 71 125 101 86 94 26 -8 -13 -33 42 27 174
67 68 72 61 50 44 42 33 21 19 36 39 40 34 36 56 77 65 58 53 54 78 114 76 77 101 44 97 81 125 67 108 81 89 121 75 134 91 50 52 9 -23 4 78 147 124 122
75 68 66 71 51 32 31 37 40 36 25 31 18 6 19 25 55 62 61 85 77 50 -2 40 41 57 22 65 72 78 107 152 146 104 112 87 117 35 21 13 -11 -31 -4 54 33 35 63
72 73 67 70 71 54 39 34 48 44 39 37 39 38 10 22 24 46 51 121 177 190 19 -66 63 98 126 69 77 12 78 146 139 109 132 81 80 13 -3 -22 -20 14 61 78 30 -12 66
73 83 88 84 74 69 59 47 43 40 33 36 46 44 35 36 39 33 64 119 237 152 0 -15 4 17 114 165 139 5 55 124 185 57 155 41 -9 -30 23 20 70 48 38 -20 -2 14 -41
70 71 87 105 103 89 65 58 46 42 36 34 38 41 39 36 46 49 89 169 274 98 17 19 31 20 44 182 171 112 73 159 94 155 247 102 40 40 -17 1 34 9 13 10 43 -7 -42
66 72 77 86 92 82 69 59 63 44 30 29 38 35 39 46 48 86 83 155 188 167 60 81 54 62 81 16 113 136 239 197 106 89 129 15 48 48 49 3 4 11 42 74 82 40 -84
74 76 67 69 63 64 55 53 54 45 28 21 26 29 51 63 59 99 36 158 229 187 161 97 112 105 92 42 -19 150 170 202 209 205 134 7 0 1 33 83 17 30 107 51 41 24 -18
68 69 62 54 59 54 41 40 49 39 24 19 30 36 45 59 98 106 80 206 156 142 254 100 143 133 121 107 33 43 126 191 111 195 141 122 55 -11 91 84 44 70 87 79 41 5 -10
49 50 48 45 53 44 39 34 33 29 27 23 32 89 66 53 101 100 159 186 209 251 149 244 210 249 105 113 93 76 90 104 111 126 196 144 79 74 41 64 54 45 102 69 133 107 8
35 35 37 45 46 42 39 36 32 23 27 24 109 130 61 63 109 149 203 200 222 226 231 70 210 230 362 297 202 140 107 55 56 108 147 84 70 52 26 65 32 90 117 149 170 65 12
34 32 34 38 39 34 30 35 35 28 24 34 119 155 62 149 153 172 213 255 142 194 202 185 148 152 159 263 234 249 210 94 38 68 84 53 130 37 92 93 88 66 83 151 118 147 73
41 22 20 23 22 24 33 35 36 35 28 61 137 186 106 217 181 197 149 257 214 184 128 19 -37 97 52 90 144 153 203 155 82 66 117 121 71 64 30 51 79 85 35 151 163 163 183
1 2 -2 -1 13 31 31 29 34 31 28 134 159 275 170 266 202 122 180 116 195 151 139 120 103 -53 9 30 172 122 180 143 58 63 138 103 137 146 63 37 14 45 93 111 191 156 108
-10 -27 -29 -27 -17 -3 18 28 34 39 18 103 172 276 290 244 236 141 134 125 115 112 59 90 73 71 20 26 75 77 199 141 128 68 88 68 144 154 91 86 50 117 100 62 156 172 141
-43 -28 -14 -14 -14 -10 -5 6 21 47 36 90 157 236 346 225 117 161 121 127 93 97 90 114 29 16 66 9 -18 140 43 105 30 -1 79 74 97 111 107 69 64 136 132 98 118 159 154
-10 -5 -8 -8 -3 3 3 3 26 59 56 104 160 282 336 273 145 79 50 119 144 45 78 28 38 38 40 68 125 128 168 127 61 -27 -26 122 83 118 95 106 130 96 88 104 54 38 100
-5 -6 -13 -14 -7 1 19 36 34 80 101 155 182 224 268 185 223 181 233 100 102 89 98 -22 19 68 15 36 40 60 43 72 91 28 -33 140 139 202 104 112 97 86 69 103 111 106 114
-8 -2 6 17 27 39 50 52 80 73 102 217 272 299 353 279 215 191 117 98 120 101 39 50 9 12 48 52 38 72 82 110 18 -47 -41 -35 77 165 87 201 145 30 130 76 56 62 88
15 22 28 40 49 58 58 55 47 65 60 182 236 338 346 254 196 155 189 166 48 67 87 79 27 39 15 71 121 76 60 90 154 9 -87 -4 106 76 126 207 213 153 207 164 139 111 101
23 29 33 33 36 39 43 50 50 42 57 103 160 265 263 191 146 198 198 144 183 144 86 68 49 32 36 52 114 108 128 149 112 137 42 -108 47 77 71 156 193 87 112 197 169 141 125
22 27 30 33 40 47 47 46 54 54 66 109 197 230 357 309 193 244 279 216 174 156 116 112 69 10 39 95 120 137 122 153 108 44 68 19 22 -1 77 64 238 226 182 143 124 88 167
3 6 13 20 19 24 55 65 51 55 49 79 197 196 294 322 235 224 315 298 302 156 131 90 121 145 114 154 137 159 170 225 177 131 55 -24 -17 -49 71 154 139 140 184 139 189 191 138
22 22 19 22 31 36 42 61 59 41 58 72 208 99 235 287 205 169 260 328 194 162 187 191 136 109 137 209 181 174 205 204 210 83 168 12 16 -28 -10 41 235 106 79 39 166 150 263